Theta_e
310 307 306 305 305 305 305 305 305 307 307 308 308 308 308 308 307 305 307 307 305 309 310 310 310 309 310 310 312 313 312 311 311 312 313 313 314 315 316 317 319 320 324 323 321 321 320 323 324 325 327 324 322 321
309 308 307 307 306 307 306 307 307 308 308 307 306 305 304 304 303 302 304 306 304 304 308 305 306 307 307 307 308 309 310 311 311 312 312 313 314 314 317 317 319 320 321 323 323 322 324 321 323 325 324 324 322 321
309 309 309 310 308 308 308 308 307 305 304 303 303 302 300 299 298 298 304 304 303 304 305 306 306 306 305 304 306 307 308 310 309 310 308 310 311 312 314 315 317 318 318 322 319 319 321 321 322 322 318 316 321 318
311 311 310 310 309 309 308 305 303 302 302 301 300 300 297 297 297 296 303 304 303 304 305 307 306 306 304 304 304 305 305 305 308 308 308 309 309 308 309 311 312 311 313 314 315 315 315 319 319 316 319 317 317 317
310 310 311 310 308 306 304 302 301 301 300 300 300 295 296 296 297 297 302 303 303 303 306 306 305 304 303 303 303 303 304 305 305 306 307 307 305 307 307 309 309 308 311 311 314 313 313 311 310 311 311 311 311 311
309 308 308 307 306 304 301 300 300 300 299 299 297 298 298 297 297 302 303 303 302 302 303 305 304 305 304 304 305 304 304 305 305 305 305 305 305 305 306 308 308 307 308 308 310 308 308 308 307 308 308 308 309 309
307 306 305 303 301 300 300 299 299 298 299 298 297 297 295 295 298 302 302 302 300 302 302 304 304 304 304 304 304 304 304 304 304 304 304 304 305 305 308 309 307 306 306 306 306 306 307 307 307 307 307 308 308 308
302 301 300 300 299 299 299 298 298 298 297 295 294 295 297 297 298 300 301 299 297 301 301 304 304 305 305 304 305 305 305 305 305 305 305 305 305 306 309 308 306 306 306 306 305 305 305 305 306 306 306 307 307 307
300 299 299 298 298 298 298 298 296 295 296 297 297 297 298 299 301 302 300 299 299 302 303 303 304 305 305 305 304 304 305 306 305 308 307 307 309 308 307 307 306 306 306 306 306 305 305 305 306 306 306 306 307 307
298 298 298 298 298 297 296 295 295 297 296 296 298 300 302 302 300 298 299 301 301 302 301 302 302 304 303 304 304 304 304 305 306 306 305 309 308 306 306 306 306 306 306 306 305 306 307 305 305 305 305 306 306 307
295 295 295 295 295 294 294 295 296 296 296 299 301 301 302 298 300 301 302 302 303 302 302 302 302 304 303 304 304 304 305 306 306 306 307 307 308 309 307 307 307 307 308 307 307 308 306 307 309 307 305 306 306 306
295 295 294 294 294 295 295 294 295 298 301 301 301 301 301 300 301 302 304 303 304 303 303 304 304 304 303 304 305 304 305 305 304 305 306 306 308 306 309 306 305 305 308 309 308 307 306 307 307 307 309 309 309 310
295 295 295 295 295 294 294 295 296 299 298 300 299 301 301 301 302 302 301 302 303 302 303 303 306 305 305 306 306 306 305 305 305 307 307 308 309 309 309 309 308 308 307 308 308 308 308 308 308 308 309 309 310 309
295 295 295 295 295 295 295 295 296 297 299 301 301 301 302 301 301 302 302 302 303 304 305 305 306 306 305 305 305 305 306 306 306 306 307 312 310 309 309 308 309 308 308 307 306 307 308 308 308 309 309 310 310 310
296 296 296 296 296 296 296 296 296 298 299 300 301 301 301 300 300 301 302 302 303 302 304 306 306 305 305 305 305 305 306 307 307 307 310 308 306 307 308 309 309 308 308 308 308 307 307 308 307 306 307 309 309 309
296 297 296 296 296 296 296 296 297 299 300 300 300 301 300 301 302 302 303 302 302 303 303 305 305 306 306 305 305 306 305 305 309 310 308 308 308 307 309 308 308 307 307 308 308 308 307 306 305 306 306 308 309 311
298 299 295 296 296 296 297 299 300 300 300 301 301 301 301 301 302 303 303 304 303 304 306 305 306 305 306 306 305 306 306 307 307 307 307 307 308 307 307 306 306 307 307 307 306 305 305 305 305 307 309 309 311 314
298 296 295 296 297 297 299 299 299 300 300 300 301 301 301 302 302 303 303 303 303 303 303 304 303 305 305 304 304 306 305 304 305 306 306 307 306 306 306 306 306 306 305 304 304 304 304 305 306 310 312 312 314 315
298 297 297 295 296 298 299 299 298 299 300 300 301 301 301 302 302 302 302 302 302 302 302 302 304 306 307 304 305 304 305 305 305 305 305 305 304 305 306 305 304 304 304 305 305 305 306 306 308 311 313 314 315 316
294 294 294 295 295 299 299 300 299 299 300 302 302 303 304 304 305 305 305 305 305 305 305 305 305 304 304 304 304 304 303 302 302 302 302 303 303 303 303 303 303 304 305 305 306 308 310 311 311 312 315 316 316 316
295 298 296 297 298 299 300 300 301 300 301 303 303 303 303 303 303 302 302 303 301 300 303 303 304 304 303 303 302 301 301 300 300 300 300 301 302 302 303 305 305 305 305 308 310 313 315 316 317 317 317 317 314 313
300 298 298 298 299 299 300 300 300 301 301 302 302 302 302 303 304 305 303 301 300 301 301 301 301 301 300 300 300 301 302 303 303 303 303 304 303 304 305 306 306 307 309 311 310 316 317 316 319 318 318 317 316 315
298 298 299 299 299 298 300 300 300 301 303 303 303 303 304 304 305 305 304 303 301 301 300 299 299 300 301 303 304 305 306 305 306 306 306 305 306 306 307 309 310 311 312 313 314 317 317 317 317 318 317 316 314 313
298 298 298 299 299 300 300 300 299 299 301 303 305 306 306 306 306 303 305 303 301 299 298 299 302 304 305 306 307 307 306 306 307 307 308 308 309 313 314 315 314 312 314 315 314 317 315 316 316 316 316 314 312 312
299 300 299 299 300 299 302 303 302 303 305 306 305 306 306 306 305 305 305 300 299 298 300 302 304 306 307 307 306 306 307 309 310 310 312 313 315 315 313 313 313 314 314 313 314 315 315 314 314 313 312 312 312 313
301 302 300 304 302 301 305 306 307 307 306 307 306 307 307 308 306 305 301 300 299 299 300 302 304 307 306 308 308 308 310 310 311 312 315 315 315 314 313 313 313 313 312 313 314 314 313 312 312 313 313 313 312 312
303 306 306 305 305 305 304 304 305 306 307 307 307 306 306 306 306 302 300 300 299 301 303 304 305 306 306 307 308 307 309 313 314 314 314 315 313 313 313 314 314 314 313 314 314 314 313 313 313 313 312 312 313 312
304 307 308 309 308 308 309 308 308 307 307 306 306 306 305 304 302 300 300 300 301 303 303 304 306 306 306 307 310 311 312 311 313 315 315 313 314 314 313 314 313 314 314 313 312 313 312 312 313 313 312 312 312 311
309 309 309 309 308 307 306 307 308 307 307 306 306 306 305 303 302 302 301 301 302 303 304 304 304 306 308 309 310 310 311 311 311 312 313 314 315 314 313 312 313 313 313 313 313 312 313 312 312 311 311 311 310 310
308 309 309 308 308 309 308 307 307 307 306 307 306 306 305 304 303 302 301 302 302 302 303 303 303 304 305 307 309 310 311 312 312 313 312 313 315 314 314 313 312 312 312 312 312 312 312 312 312 312 311 311 311 309
307 308 309 309 309 308 308 308 308 307 307 308 307 307 307 306 304 303 301 301 301 302 302 303 303 304 304 306 307 308 310 312 313 313 313 313 314 314 314 314 312 313 313 312 312 311 311 311 311 310 310 310 309 309
308 308 307 308 308 307 307 308 308 308 307 306 305 306 307 306 305 303 301 301 301 301 302 303 303 304 304 306 307 308 309 309 311 313 314 314 314 314 314 314 312 313 313 313 313 313 313 312 312 311 310 309 309 309
307 307 306 306 305 306 307 306 307 308 308 307 306 305 305 305 304 302 302 301 300 301 301 302 303 304 305 306 308 308 309 310 310 311 313 314 314 314 314 314 312 312 312 313 313 313 313 312 311 311 311 311 310 310
Wind_Speed
37 33 29 28 26 24 20 19 16 16 16 17 17 14 14 13 10 5 2 7 5 11 17 10 10 10 10 6 6 3 4 7 7 8 9 11 10 12 15 17 17 15 9 12 15 18 19 13 16 9 5 7 5 4
37 35 33 30 28 27 26 22 22 22 19 14 15 14 11 9 7 5 2 5 6 10 12 11 10 10 10 11 8 8 11 7 2 4 4 5 10 11 14 13 11 12 12 7 3 8 10 10 8 10 14 5 4 1
38 35 38 35 36 31 27 27 25 19 15 12 12 11 9 7 8 13 5 3 7 12 18 19 22 16 14 13 10 9 11 6 8 8 8 5 8 8 11 12 12 15 17 11 9 13 14 11 7 11 17 28 19 3
35 31 29 27 36 32 29 26 21 17 13 13 11 9 8 7 8 12 4 4 4 7 7 5 4 7 7 10 14 16 18 12 9 8 12 8 11 12 12 14 13 15 17 13 16 18 19 15 17 18 10 14 17 13
21 29 30 25 27 29 26 21 19 13 13 11 10 8 7 5 7 9 4 3 4 5 8 9 8 8 8 9 10 11 13 12 13 16 11 11 20 14 17 14 15 19 14 11 12 19 17 21 23 21 18 20 20 18
23 22 20 19 24 25 20 17 14 16 13 12 10 8 6 6 7 2 4 4 3 4 6 4 3 4 11 12 12 13 17 16 17 17 15 21 23 17 9 13 27 25 23 23 24 29 28 32 30 28 27 27 25 25
21 21 23 23 19 17 17 18 17 14 14 12 9 8 7 8 6 4 2 3 5 2 4 6 5 12 11 12 14 14 14 16 18 20 21 23 23 21 12 16 27 29 30 30 32 31 30 32 29 28 26 25 25 25
20 19 18 18 19 20 18 16 16 15 13 10 9 8 7 6 4 1 6 3 3 3 5 4 5 10 13 10 13 15 16 20 21 21 22 17 23 23 16 25 33 35 36 36 36 35 37 39 37 36 33 34 31 32
24 23 20 19 20 20 20 18 16 13 13 10 9 7 4 3 4 4 7 6 5 3 4 5 8 5 8 12 12 14 20 11 21 13 18 19 13 15 21 29 33 35 34 34 36 35 34 33 35 36 35 35 34 32
23 22 21 20 19 17 16 15 16 13 13 12 11 3 4 5 6 3 1 4 5 6 7 9 16 11 18 15 12 13 15 9 12 13 21 12 12 28 35 37 36 37 36 28 34 32 40 34 32 32 36 34 30 29
17 17 16 15 15 14 15 16 15 15 13 7 5 1 5 4 4 3 5 7 7 4 8 12 16 11 14 10 9 5 5 5 6 13 13 14 13 19 5 4 15 12 24 16 12 14 20 28 28 27 31 35 31 27
15 14 13 12 12 13 14 14 16 13 4 3 1 2 4 4 4 5 4 5 6 5 9 12 7 8 3 6 4 6 5 4 7 12 12 15 12 21 6 9 17 16 17 15 16 19 20 24 23 29 29 22 21 18
12 11 11 9 9 11 11 13 14 6 2 2 3 3 4 4 3 6 7 5 5 9 5 5 3 2 3 5 3 3 5 7 13 12 17 15 7 6 2 9 10 13 17 17 20 22 23 23 25 27 23 24 25 26
10 10 9 8 8 10 11 10 9 5 1 3 4 2 4 5 6 7 10 7 6 13 8 3 3 3 2 2 5 5 6 5 5 11 16 7 11 13 10 11 12 17 18 25 28 23 26 26 21 20 21 23 24 26
11 10 7 5 6 8 8 8 9 5 3 4 5 4 9 14 14 8 14 15 14 8 19 6 1 5 4 4 4 6 5 6 6 9 4 13 21 22 22 13 16 17 21 25 26 26 28 21 20 24 25 24 24 27
11 10 5 5 5 6 8 8 5 4 4 5 7 9 14 6 10 12 11 15 12 12 7 2 3 3 6 4 5 8 8 16 13 6 15 15 16 22 19 19 21 29 31 25 23 18 20 24 27 27 24 25 24 25
5 3 4 5 5 6 9 7 5 5 6 5 7 13 15 14 14 17 7 15 5 14 7 2 3 7 3 5 5 5 11 12 19 23 26 23 22 24 25 31 30 26 22 22 25 29 28 25 23 21 22 22 22 23
2 2 4 3 4 2 2 4 4 5 8 13 13 16 16 16 16 15 11 13 13 14 14 12 16 9 8 15 15 14 29 36 35 32 32 31 33 33 33 30 26 28 31 31 29 26 23 21 19 18 19 20 16 13
4 2 2 3 4 2 3 4 6 5 8 13 14 15 16 17 17 17 17 17 16 16 14 9 6 7 9 19 20 25 28 30 34 40 38 36 36 33 26 28 30 30 33 31 28 24 21 18 17 17 16 14 15 17
6 6 4 4 7 3 3 3 6 6 7 12 15 15 16 18 13 12 12 12 8 7 6 5 11 23 26 29 30 29 31 36 35 37 40 37 30 32 34 32 34 32 30 29 26 17 13 15 17 19 12 16 21 28
0 4 4 4 5 6 5 4 6 8 10 10 11 14 15 13 9 8 10 14 6 6 5 11 21 27 27 28 30 35 41 39 35 32 35 38 38 36 36 29 26 29 28 23 19 23 13 13 13 16 19 24 34 39
3 3 4 5 4 4 6 7 7 10 7 11 12 5 7 7 7 6 6 6 3 4 6 15 23 27 31 33 35 31 30 29 29 30 28 28 30 30 31 29 27 24 19 10 12 14 13 14 16 23 28 30 32 35
2 4 4 3 3 3 5 6 3 3 3 3 4 3 4 4 4 4 1 1 3 7 19 20 20 19 20 22 19 19 19 24 26 25 27 30 32 31 28 22 15 15 15 14 12 11 14 14 17 26 30 36 43 40
5 3 2 3 4 4 4 3 4 4 4 3 2 3 3 3 4 3 1 2 10 27 26 26 24 20 16 17 17 16 16 17 17 23 26 24 24 17 11 10 9 19 11 9 5 11 11 17 26 39 43 45 41 37
2 3 4 5 4 3 3 2 3 2 3 2 2 3 3 3 2 2 3 6 23 29 33 31 31 22 16 18 21 23 22 26 30 27 21 16 8 8 13 11 5 1 3 1 12 26 29 37 41 48 51 47 41 30
3 5 5 3 3 3 2 2 2 2 2 2 3 6 5 3 3 4 5 20 23 29 32 31 27 21 22 23 24 27 24 22 22 23 18 21 9 9 14 16 10 6 2 8 26 36 42 46 44 44 36 30 36 37
3 4 7 4 4 4 4 7 6 4 2 4 5 7 6 6 5 5 18 22 29 28 24 24 23 23 24 21 23 21 25 25 19 15 23 23 22 15 12 14 14 21 15 26 35 42 41 43 37 35 38 35 31 32
7 4 4 3 4 6 3 3 3 4 3 6 5 7 3 5 2 10 17 24 25 25 24 24 27 24 23 21 22 24 25 24 29 21 24 26 20 20 17 22 21 31 35 38 37 40 45 37 30 36 34 31 32 31
6 6 5 3 2 5 6 5 4 3 4 4 2 1 2 3 11 16 21 25 23 25 26 30 35 31 29 23 23 23 24 25 28 28 28 30 25 17 20 13 20 29 32 35 35 34 31 32 32 32 29 28 30 28
3 2 2 5 7 4 5 5 5 4 2 2 3 1 1 1 7 15 20 24 23 21 25 26 31 37 35 30 27 25 24 21 19 22 22 23 22 12 13 12 13 25 30 29 31 31 29 30 29 29 28 27 29 32
1 1 2 2 2 6 5 3 1 2 1 4 2 5 4 2 5 8 18 23 24 22 21 25 28 31 33 25 26 27 27 23 19 16 15 15 17 14 12 12 16 23 26 28 28 25 29 30 28 27 25 25 26 29
2 2 4 2 4 3 1 2 5 2 4 4 7 6 3 1 5 9 17 21 24 25 20 24 26 28 26 20 21 22 22 24 27 19 16 17 14 13 10 14 20 23 26 26 24 23 22 26 26 24 26 26 28 28
2 1 2 2 2 2 2 3 3 4 0 3 4 6 7 5 4 9 18 20 19 21 20 16 23 21 20 19 20 24 23 22 24 22 19 15 12 13 13 13 21 33 21 27 27 26 27 24 23 22 23 22 26 27
Wind_Direction
220 215 217 219 218 221 222 223 226 238 248 265 275 282 279 278 272 217 227 258 258 268 270 294 279 269 265 263 275 23 257 191 223 243 263 259 262 260 264 262 265 258 221 229 229 239 250 360 315 298 65 109 127 107
216 213 214 219 223 223 223 230 250 252 250 253 267 264 262 264 237 198 262 274 273 250 242 304 274 244 255 270 294 273 268 300 282 286 245 298 283 282 269 265 262 258 263 272 142 267 331 332 342 344 341 301 223 105
214 215 215 228 223 224 224 239 235 232 231 230 236 241 246 223 193 184 186 294 300 275 283 256 244 249 242 238 240 250 255 322 269 312 308 300 283 303 284 280 295 275 273 265 297 269 284 246 283 310 298 324 305 56
221 220 219 218 219 223 221 213 208 208 224 221 226 226 220 203 194 194 195 303 296 288 286 238 155 198 231 233 231 238 262 289 295 276 264 273 275 279 277 288 289 284 306 301 284 288 284 234 248 262 232 280 274 306
214 219 226 219 218 212 198 194 200 208 197 199 202 199 191 184 192 192 218 260 277 274 302 310 304 242 226 212 220 230 240 253 253 251 244 249 260 273 275 280 271 270 274 273 279 299 319 306 310 312 304 302 302 303
184 176 178 186 189 183 191 198 183 177 180 183 183 189 195 185 166 176 211 180 248 272 285 287 337 221 207 223 241 244 239 243 245 253 256 266 270 275 274 270 272 278 281 281 282 289 290 289 287 286 285 285 284 285
147 152 157 159 175 174 163 163 169 169 173 179 185 194 189 182 157 259 143 166 152 11 270 279 253 197 220 229 238 247 240 236 244 252 253 258 261 260 263 263 274 272 273 273 277 288 289 283 286 287 291 285 284 284
135 138 139 144 145 150 158 161 156 158 160 162 156 151 150 153 129 257 249 298 257 254 257 271 265 212 184 213 230 221 228 227 229 241 251 257 263 254 254 261 269 270 269 271 271 271 270 271 274 275 276 280 280 277
125 129 134 136 136 137 139 145 149 151 144 143 143 144 129 140 202 204 233 260 197 200 281 262 266 320 169 239 251 261 237 242 252 241 246 249 246 248 257 260 262 266 272 273 273 272 270 272 281 263 258 256 257 261
115 119 122 128 135 143 146 145 144 142 141 138 131 181 199 181 207 238 108 179 202 214 229 260 266 273 282 285 274 270 253 251 262 260 263 255 265 271 266 260 260 260 262 270 279 279 281 261 257 263 270 268 253 257
121 125 130 136 140 144 145 143 143 145 142 149 207 213 125 147 162 210 226 208 189 229 219 242 237 264 255 261 272 279 291 281 263 272 271 266 267 267 328 334 311 334 309 261 269 281 304 286 303 276 253 262 262 262
111 117 125 131 141 148 148 148 151 147 181 219 55 141 161 191 209 238 218 211 197 239 204 227 207 232 323 320 318 340 302 277 261 263 266 265 271 272 244 310 333 316 287 304 312 315 289 279 284 270 269 267 272 273
112 112 116 124 143 152 157 165 172 177 116 221 240 221 193 198 227 232 211 204 233 244 269 254 92 358 351 20 2 273 246 247 257 261 261 262 8 32 295 278 296 278 281 294 302 304 296 267 280 276 276 267 264 265
106 109 115 121 129 153 166 172 173 171 306 228 211 255 226 217 220 233 257 276 278 327 320 257 146 126 178 230 255 238 242 273 256 249 265 51 9 339 307 296 294 284 288 293 285 286 288 280 277 286 281 262 263 265
98 99 105 131 152 155 165 178 181 167 262 253 224 238 220 238 249 224 262 276 208 244 244 172 212 203 206 241 219 266 258 241 251 282 6 355 318 285 277 291 292 291 290 283 285 279 281 274 280 275 268 261 263 257
106 87 102 119 129 156 180 183 190 215 251 242 238 258 272 205 267 294 298 263 256 238 245 175 271 221 224 229 216 229 261 266 281 349 313 299 284 285 308 301 303 302 297 286 285 282 278 274 284 277 274 260 251 245
100 110 136 125 100 112 148 166 192 224 246 231 244 238 262 285 236 258 273 260 250 261 266 212 226 233 224 232 247 260 270 285 298 300 310 312 315 314 310 311 307 304 301 296 292 289 285 286 280 265 260 245 244 245
92 87 163 141 124 145 218 243 273 260 255 256 264 267 273 276 286 285 271 270 283 279 272 271 265 241 250 272 277 291 300 300 299 302 305 309 314 310 309 305 306 303 302 300 298 292 284 272 254 253 244 243 237 241
137 181 268 214 188 225 237 224 217 266 261 270 271 279 284 287 286 284 283 280 277 273 271 275 264 247 253 267 280 294 297 301 307 305 302 303 304 304 306 305 302 300 301 302 301 291 278 256 243 236 239 221 208 171
238 254 245 231 194 239 260 232 204 257 273 292 292 298 302 295 317 304 304 316 313 295 254 244 250 261 277 287 293 292 293 297 296 297 295 297 298 299 301 304 302 305 309 313 311 301 274 236 218 218 220 193 165 160
197 237 221 196 205 240 270 265 247 261 293 293 304 318 304 302 313 307 294 284 245 218 241 251 279 288 285 286 287 290 290 291 284 280 282 290 300 298 302 309 315 314 309 315 312 317 243 223 206 199 178 166 151 148
246 272 242 223 250 242 253 246 267 303 296 285 299 267 265 280 265 238 213 195 231 235 268 280 292 294 293 291 294 296 293 292 292 293 297 303 300 305 306 307 307 306 305 325 303 284 176 182 161 157 159 158 161 158
194 228 246 242 248 244 265 286 278 258 265 270 263 249 232 237 253 267 215 251 277 326 318 313 315 310 303 307 306 306 307 298 288 293 293 298 306 308 308 313 309 295 301 289 322 151 154 153 163 166 164 157 144 140
282 222 237 241 238 270 297 259 243 262 270 263 251 273 296 280 312 38 309 306 322 336 339 349 349 343 345 344 340 346 325 317 303 304 316 319 319 329 320 305 255 253 288 275 253 191 168 169 163 152 146 141 143 143
227 217 220 240 231 240 248 247 233 249 271 302 296 280 272 299 28 12 343 313 326 342 352 360 357 357 354 347 341 335 326 323 327 329 337 351 2 3 64 44 63 111 212 231 155 154 150 139 132 132 132 141 145 147
261 203 203 264 190 203 285 286 276 299 288 290 280 301 326 11 42 357 326 332 339 345 348 350 349 353 349 347 340 343 352 352 337 341 11 8 74 91 62 42 43 63 75 149 151 144 135 132 135 138 138 138 138 138
270 245 218 238 250 240 238 252 252 257 309 10 341 357 5 19 14 338 325 354 349 6 14 16 12 2 358 349 9 13 357 8 8 35 42 51 58 49 61 56 89 66 133 131 140 143 142 140 133 132 133 133 135 139
238 251 237 216 231 232 352 48 36 38 18 354 14 23 27 357 325 323 343 8 11 21 19 26 22 15 10 23 28 24 22 19 44 65 58 52 44 59 64 71 92 103 105 120 121 127 130 126 127 131 131 128 130 136
237 235 223 237 197 71 35 45 55 64 43 33 48 22 31 331 2 353 358 9 12 19 24 27 24 25 21 34 33 30 25 26 31 37 37 27 35 62 74 62 88 108 106 115 126 133 129 131 130 133 134 132 130 131
260 122 327 11 47 83 48 48 90 95 74 77 123 151 292 303 20 17 18 20 19 12 20 27 23 23 16 20 25 36 34 33 38 26 23 17 31 58 64 80 122 120 115 115 119 125 132 134 135 137 136 133 132 134
225 314 24 142 83 83 99 126 68 322 254 184 131 31 64 92 44 28 12 16 14 15 22 25 26 22 15 19 23 25 35 41 41 41 38 39 49 54 46 75 140 135 129 124 129 135 135 134 132 134 136 135 138 140
200 233 336 43 127 114 213 230 177 166 295 42 32 43 87 115 53 0 353 6 15 15 21 27 24 16 12 27 36 39 38 31 32 42 48 49 62 73 57 78 148 150 137 132 129 136 133 137 136 139 138 141 142 147
284 351 272 286 239 256 111 320 225 178 50 40 46 22 47 44 61 6 12 11 12 6 8 21 20 8 8 27 38 34 37 39 33 30 41 50 73 69 71 81 142 171 147 139 133 128 128 130 130 133 140 144 143 143